Clarksville, OH (45113)

4:01 AM EDT on October 31, 2014 (GMT -0400)
Clarksville, OH - Clinton Co. | Change Station
CLOSE
Current Station
Personal Weather Station
Location: Clarksville, OH
Elevation: 928 ft
Nearby Weather Stations
Active Advisory: Freeze Warning, Freeze Watch

Elev 928 ft 39.38 °N, 83.98 °W | Updated 10 seconds ago

Overcast
Overcast
43.9 °F
Feels Like 44 °F
N
0.0
Wind Variable Wind from NE
Gusts 0.0 mph

Today
High -- | Low -- °F
--% Chance of Precip.
Yesterday
High -- | Low -- °F
Precip. -- in
8:02 AM 6:35 PM
First Quarter, 52% visible
Pressure 30.04 in
Visibility 10.0 miles
Clouds Mostly Cloudy 4500 ft
Mostly Cloudy 6500 ft
Overcast 9000 ft
Windchill 44 °F
Dew Point 41 °F
Humidity 91%
Rainfall 0.00 in
Snow Depth Not available.
UV 0 out of 12
Pollen .20 out of 12
Air Quality Not available.
Flu Activity Not available.
METAR KILN 310754Z AUTO 00000KT 10SM BKN045 BKN065 OVC090 04/02 A3000 RMK AO2 SLP172 T00440017

More Conditions Fewer Conditions

Pressure 30.04 in
Visibility 10.0 miles
Clouds Mostly Cloudy 4500 ft
Mostly Cloudy 6500 ft
Overcast 9000 ft
Windchill 44 °F
Dew Point 41 °F
Humidity 91%
Rainfall 0.00 in
Snow Depth Not available.
UV 0 out of 12
Pollen .20 out of 12
Air Quality Not available.
Flu Activity Not available.
METAR KILN 310754Z AUTO 00000KT 10SM BKN045 BKN065 OVC090 04/02 A3000 RMK AO2 SLP172 T00440017

More Conditions Fewer Conditions

10-Day Weather Forecast

Almanac

Astronomy

Oct. 31, 2014 Rise Set
Actual Time
Civil Twilight
Nautical Twilight
Astronomical Twilight
Moon
Length of Visible Light
Length of Day
Tomorrow will be .
, % of the Moon is Illuminated

Today's Extremes

State Highs State Lows

Community

WunderPhotos

Upload Photos

1,766,573 photos uploaded!

WunderBlogs® & News

Nearby

Air Quality

  Air Quality AQ Index Pollutant
Not available.

Snow Depth

Station Depth Elevation

Earthquake Activity

City Distance Mag. Time & Date
Minimum magnitude displayed is 2.5.

Coastal Water Temperatures

Place Temperature

Nearby Weather Stations